Location: Audrecelles
(50.8240°N, 1.5923°E)
Time: 03:30:09
(UTC+00:00)

Cosmos 44 - Pass Details

Date: 14 October 2025
Orbit: 576 x 774 km, 65.1° (Epoch: 13 November)

Event Time Altitude Azimuth Distance (km) Brightness Sun altitude
Exits shadow 03:43:35 11° 335° (NNW) 2,079 5.7 -24.5°
Maximum altitude 03:46:52 20° 19° (NNE) 1,641 5.6 -24.0°
Drops below altitude 10° 03:50:32 10° 66° (ENE) 2,234 7.0 -23.4°
Sets 03:53:37 0° 83° (E) 3,188 8.1 -23.0°
